Home   Weather   Bremen   Past weeks

Flag for Germany Past Weather in Bremen, Bremen, Germany — Yesterday and Last 2 Weeks

Now
63 °F

Broken clouds.


Feels Like: 63 °F
Forecast: 52 / 63 °F
Wind: 14 mph from Southwest

Location: Bremen Airport

Current Time: Sep 29, 2016 at 8:49:26 AM

Latest Report: Sep 29, 2016 at 8:20 AM


Visibility: N/A

Pressure: 29.95 "Hg

Humidity: 64%

Dew Point: 50 °F

Location of BremenLocation

Past Weather in Bremen — Graph

°F

Bremen Temperature Yesterday

Maximum temperature yesterday: 73 °F (at 3:20 PM)
Minimum temperature yesterday: 54 °F (at 12:50 AM)
Average temperature yesterday: 65 °F

High & Low Weather Summary for the Past Weeks

 TemperatureHumidityPressure
High86 °F (Sep 14, 3:20 PM)100% (Sep 17, 12:50 AM)30.30 "Hg (Sep 17, 12:50 AM)
Low45 °F (Sep 21, 6:50 AM)32% (Sep 15, 4:50 PM)29.86 "Hg (Sep 16, 2:20 AM)
Average62 °F73%30.10 "Hg
* Reported Sep 14 7:20 AM — Sep 29 7:50 AM, Bremen, Weather by CustomWeather, © 2016

Note: Actual official high and low records may vary slightly from our data, if they occured in-between our weather recording intervals... More about our weather records

Advertising

Bremen Weather History for the Previous 24 Hours

Scroll right to see more
 ConditionsComfort  
Time TempWeatherWind HumidityBarometerVisibility
7:50 AM
Thu, Sep 29
64 °FBroken clouds.14 mph64%29.95 "HgN/A
7:20 AM64 °FPartly cloudy.13 mph64%29.95 "HgN/A
6:50 AM64 °FPartly cloudy.14 mph68%29.98 "HgN/A
6:20 AM64 °FPassing clouds.14 mph68%29.98 "HgN/A
5:50 AM63 °FPassing clouds.12 mph73%29.98 "HgN/A
5:20 AM64 °FClear.13 mph68%30.01 "Hg10 mi
4:50 AM64 °FClear.13 mph68%30.01 "Hg10 mi
4:20 AM64 °FClear.10 mph68%30.01 "Hg10 mi
3:50 AM64 °FClear.10 mph68%30.04 "Hg10 mi
3:20 AM63 °FClear.13 mph73%30.04 "Hg10 mi
2:50 AM64 °FClear.13 mph68%30.04 "Hg10 mi
2:20 AM64 °FClear.13 mph68%30.07 "Hg10 mi
1:50 AM63 °FClear.13 mph73%30.07 "Hg10 mi
1:20 AM64 °FClear.10 mph68%30.07 "Hg10 mi
12:50 AM63 °FClear.10 mph73%30.09 "Hg10 mi
12:20 AM64 °FClear.10 mph68%30.09 "Hg10 mi
11:50 PM
Wed, Sep 28
64 °FPassing clouds.10 mph64%30.09 "HgN/A
11:20 PM64 °FPassing clouds.12 mph64%30.09 "HgN/A
10:50 PM66 °FClear.13 mph60%30.12 "Hg10 mi
10:20 PM66 °FClear.16 mph60%30.09 "Hg10 mi
9:50 PM66 °FClear.12 mph64%30.12 "Hg10 mi
9:20 PM63 °FPassing clouds.8 mph68%30.12 "HgN/A
8:50 PM64 °FPassing clouds.6 mph64%30.12 "HgN/A
8:20 PM68 °FPassing clouds.8 mph56%30.12 "HgN/A
7:50 PM68 °FPassing clouds.9 mph56%30.12 "HgN/A
7:20 PM68 °FPassing clouds.13 mph53%30.12 "HgN/A
6:50 PM70 °FPartly sunny.15 mph50%30.12 "HgN/A
6:20 PM70 °FBroken clouds.16 mph46%30.12 "HgN/A
5:50 PM70 °FBroken clouds.17 mph46%30.09 "HgN/A
5:20 PM72 °FPartly sunny.20 mph44%30.09 "HgN/A
4:50 PM72 °FPartly sunny.20 mph44%30.12 "HgN/A
4:20 PM72 °FPartly sunny.20 mph47%30.09 "HgN/A
3:50 PM73 °FPartly sunny.23 mph44%30.09 "HgN/A
3:20 PM73 °FBroken clouds.21 mph50%30.09 "HgN/A
2:50 PM72 °FPartly sunny.18 mph53%30.12 "HgN/A
2:20 PM72 °FPartly sunny.20 mph50%30.12 "HgN/A
1:50 PM70 °FPartly sunny.17 mph50%30.12 "HgN/A
1:20 PM70 °FPartly sunny.17 mph57%30.12 "HgN/A
12:50 PM70 °FPartly sunny.17 mph57%30.12 "HgN/A
12:20 PM68 °FPartly sunny.20 mph64%30.12 "HgN/A
11:50 AM66 °FPartly sunny.21 mph68%30.12 "HgN/A
11:20 AM68 °FPartly sunny.23 mph69%30.12 "HgN/A
10:50 AM66 °FPartly sunny.22 mph73%30.12 "HgN/A
10:20 AM64 °FPartly sunny.20 mph73%30.12 "HgN/A
9:50 AM64 °FPartly sunny.17 mph78%30.12 "HgN/A
9:20 AM63 °FPartly sunny.16 mph77%30.12 "HgN/A
8:50 AM63 °FPartly sunny.15 mph77%30.12 "HgN/A
8:20 AM61 °FScattered clouds.12 mph77%30.12 "HgN/A
Weather by CustomWeather, © 2016

See weather overviewHow to use our weather pages